335  
ASUS41 KAKQ 200314  
RWRAKQ  
 
REGIONAL WEATHER ROUNDUP  
NATIONAL WEATHER SERVICE WAKEFIELD VA  
1100 PM EDT TUE JUN 19 2018  
 
NOTE: "FAIR" INDICATES FEW OR NO CLOUDS BELOW 12,000 FEET WITH NO  
SIGNIFICANT WEATHER AND/OR S TO VISIBILITY
. * = DENOTES  
STATION MAY NOT REPORT PRECIPITATION (E.G., RAIN,SNOW,ETC.),
 
THUNDER OR FOG.  
 
VAZ042-051-052>054-056-200400-  
NORTHERN VIRGINIA  
 
CITY SKY/WX TMP DP RH WIND PRES REMARKS
 
WASH NATIONAL CLOUDY 79 72 79 N7 29.88S  
DULLES MOCLDY 74 73 97 W5 29.89S  
FORT BELVOIR FAIR 75 74 98 W3 29.88S  
QUANTICO FAIR 76 75 97 NW7 29.89S  
FREDERICKSBRG* FAIR 75 75 100 CALM 29.88S  
STAFFORD* FAIR 74 74 100 CALM 29.92F  
WARRENTON CLOUDY 75 71 87 CALM 29.89F  
CULPEPER* CLOUDY 75 73 95 CALM 29.91F  
MANASSAS* MOCLDY 74 73 97 CALM 29.89F  
LEESBURG* FAIR 70 70 100 CALM 29.91S  
WINCHESTER MOCLDY 73 72 94 CALM 29.93S  
FRONT ROYAL* CLOUDY N/A N/A N/A CALM 29.91S  
LURAY* CLOUDY 73 73 100 CALM 29.93S  

 
 
VAZ048-049-060>072-079>083-200400-  
CENTRAL AND SOUTH CENTRAL VIRGINIA  
 
CITY SKY/WX TMP DP RH WIND PRES REMARKS
 
RICHMOND CLOUDY 76 74 93 NW5 29.89R  
CHESTERFIELD* FAIR 74 73 97 W3 29.89F  
PETERSBURG* LGT RAIN 73 71 94 CALM 29.90S  
HANOVER FAIR 75 74 96 CALM 29.90S  
TAPPAHANNOCK* CLOUDY 75 75 100 W3 29.88F FOG  
QUINTON* MOCLDY 73 73 100 CALM 29.88S  
CHARLOTTSVILLE FAIR 75 73 93 W3 29.92F  
GORDONSVILLE* FAIR 72 72 100 CALM 29.91F  
ORANGE* FAIR 72 72 100 CALM 29.91S  
LOUISA* MOCLDY 71 71 100 SW3 29.95F FOG  
BUMPASS* MOCLDY 72 70 95 CALM 29.90F VSB 3/4  
FARMVILLE* NOT AVBL  
CREWE* FAIR 72 72 100 CALM 29.90S  
FORT PICKETT* N/A N/A N/A N/A MISG N/A  
CHASE CITY* MOCLDY 74 74 100 E5 29.90F  
CLARKSVILLE* CLOUDY 77 73 88 CALM 29.91R  
SOUTH HILL* CLOUDY 72 72 100 CALM 29.96F  
LAWRENCEVILLE* MOCLDY 73 72 97 SW3 29.90F  
EMPORIA* RAIN 72 72 100 S3 29.92F  

 
 
VAZ088>098-200400-  
SOUTHEAST VIRGINIA  
 
CITY SKY/WX TMP DP RH WIND PRES REMARKS
 
NORFOLK FAIR 80 76 87 CALM 29.86S  
VIRGINIA BEACH CLOUDY 77 71 82 NW5 29.85R  
NORFOLK NAVAL MOCLDY 78 73 84 W7 29.87S  
WEST POINT* FAIR 74 74 100 CALM 29.88S  
SALUDA* MOCLDY 75 75 100 W3 29.87S  
NEWPORT NEWS FAIR 76 73 91 N3 29.86S  
LANGLEY AFB MOCLDY 75 75 100 CALM 29.86S  
FORT EUSTIS MOCLDY 75 73 94 NW7 29.85S  
WILLIAMSBURG* FAIR 75 75 100 CALM 29.88R  
HR EXEC AP* FAIR 74 73 97 CALM 29.87F  
FRANKLIN* LGT RAIN N/A N/A N/A W7 29.87F  
US460-WAKEFLD LGT RAIN 74 72 93 CALM 29.86F FOG  

 
 
VAZ020-022-025-037-045-200400-  
WEST CENTRAL AND SOUTHWEST VIRGINIA  
 
CITY SKY/WX TMP DP RH WIND PRES REMARKS
 
STAUNTON* MOCLDY 73 71 94 CALM 29.96F  
WAYNESBORO* FAIR 72 72 99 CALM 29.96F  
HOT SPRINGS VA MOCLDY 70 68 94 W8 30.09F  
LYNCHBURG FAIR 76 69 79 NE12 29.93R  
DANVILLE MOCLDY 81 73 76 NE13 29.91R  
SOUTH BOSTON* CLOUDY 74 72 95 S5 29.95R VSB 1/2  
MARTINSVILLE FAIR 76 71 84 NW3 29.95R  
ROANOKE MOCLDY 82 65 56 W3 29.97R  
BLACKSBURG FAIR 73 68 86 CALM 30.06S  
DUBLIN* FAIR 76 64 67 NW6 30.05S  
MARION* CLOUDY 75 72 92 SW7 30.10R  
HILLSVILLE* FAIR 74 69 81 NW6 30.06S  
RICHLANDS* MOCLDY 73 65 76 NW8 30.10S  
WISE* FAIR 70 70 100 CALM 30.10S  
ABINGDON* LGT RAIN 73 72 95 CALM 30.06R  

 
 
MDZ021>025-VAZ099-100-200400-  
SOUTHERN MARYLAND AND THE DELMARVA PENINSULA  
 
CITY SKY/WX TMP DP RH WIND PRES REMARKS
 
PATUXENT RIVER FAIR 79 76 90 NW7 29.85R  
BAY BRIDGE APT FAIR 77 73 88 NW3 29.86S  
LEONARDTOWN CLOUDY 75 73 94 CALM 29.88S  
DOVER FAIR 73 71 92 NE6 29.85F  
GEORGETOWN FAIR 80 71 74 CALM 29.86R  
EASTON FAIR 75 72 89 CALM 29.90S  
CAMBRIDGE CLEAR 75 73 94 CALM 29.86S  
SALISBURY MOCLDY 76 76 100 CALM 29.85S  
TANGIER FAIR 79 79 100 NW10 29.85F  
OCEAN CITY CLOUDY 77 75 93 W3 29.86R  
WALLOPS ISLAND LGT RAIN 77 76 96 SW3 29.85F  
ACCOMACK* CLOUDY 76 76 98 CALM 29.86S  

 
 
NCZ012>017-030>032-200400-  
NORTH CENTRAL AND EASTERN NORTH CAROLINA  
 
CITY SKY/WX TMP DP RH WIND PRES REMARKS
 
ROANOKE RAPIDS HVY RAIN 72 72 100 NE12G26 29.91S  
RALEIGH FAIR 83 74 74 SW5 29.87S  
ELIZABETH CITY FAIR 80 77 90 N14 29.85S  
AHOSKIE* CLOUDY 76 73 88 MISG 29.91R  
EDENTON* FAIR 81 73 78 N13G18 29.86S  
CURRITUCK* FAIR 77 71 80 MISG 29.87R  
KILL DEVIL HLS FAIR 81 75 83 N3 29.82S  
MANTEO FAIR 82 75 79 N15G21 29.84R  
CAPE HATTERAS FAIR 82 80 94 SW9 29.83S  
TARBORO* NOT AVBL  
GOLDSBORO FAIR 85 74 68 CALM 29.85R  
WASHINGTON FAIR 82 73 75 CALM 29.85S  
GREENVILLE FAIR 81 75 83 CALM 29.88R  
NEW BERN FAIR 80 76 87 SW3 29.86S  
WILMINGTON FAIR 81 74 79 SW8 29.88S  

 
 
VAZ048-200400-  
ELSEWHERE  
 
CITY SKY/WX TMP DP RH WIND PRES REMARKS
 
HARRISBURG PA MOCLDY 73 54 51 CALM 29.89S  
BALTIMORE FAIR 76 65 68 N5 29.87S  
ANNAPOLIS FAIR 79 73 82 CALM 29.86F  
ANDREWS AFB FAIR 76 72 86 NW5 29.87F  
PHILADELPHIA FAIR 77 54 44 N10 29.87S  
HENDERSON NC FAIR 73 68 82 NE6 29.91S  
GREENSBORO FAIR 82 71 69 W6 29.91R  
ROCKY MOUNT MOCLDY 80 71 74 NE21G33 29.90R  

 
 
VAZ100-200400-  
MARINE  
 
STATION/POSITION TIME TEMP WIND PRES WAVE SWELL
 
AIR SEA DIR/SP/G HT/PER HT/PER  
(UTC) (F) (DEG/KT/KT) (MB) (FT/S) (FT/S)  
BRANDYWINE LGT 0242 75 120/ 11/ 12 1011.1F  
CAPE MAY NJ 0242 73 74 110/ 8/ 10 1010.5S  
LEWES DE 0242 75 73 150/ 4/ 7 1010.7F  
15NM E FENWICK I 0250 71 70 90/ 6/ 8 1011.3R 2/ 6 2/ 6  
OCEAN-CITY-INLET 0242 78 79 CALM / 2 1011.4R  
WACHAPREAGUE VA 0248 75 86 330/ 1/ 2 1011.1S  
THOMAS POINT MD 0300 78 76 310/ 6/ 7 1011.9F  
GOOSES REEF MD 0300 78 78 350/ 8/ 8 1011.5  
COVE POINT MD 0248 77 320/ 6/ 8 1011.8F  
SOLOMONS ISLAND 0248 77 77 290/ 5/ 7 1010.9F  
BISHOPS HEAD MD 0248 78 84 330/ 5/ 7 1011.4F  
PINEY POINT MD 0236 340/ 10/ 11 N/A  
CAMBRIDGE MD 0248 77 82 1012.1F  
LEWISETTA VA 0236 76 81 300/ 4/ 5 1011.3S  
RAPPAHANNOCK LGT 0236 310/ 10/ 12 1011.9R  
STINGRAY PT 0250 77 330/ 10/ 12 1010.2R  
YORK RVR RNG VA 0236 77 320/ 10/ 12 1011.8R  
DOMINION TERM VA 0236 77 290/ 8/ 10 1011.4R  
KIPTOPEKE VA 0236 81 30/ 4/ 6 N/A  
CAPE HENRY VA 0236 78 300/ 5/ 8 1009.5R  
WILLOUBY STN VA 0236 77 280/ 8/ 11 1010.5R  
S CRANEY ISL VA 0236 78 270/ 6/ 8 1011.3R  
CAPE HENRY BUOY 0230 76 N/A 2/ 3  
1ST LANDING BUOY 0300 78 80 350/ 10/ 10 1011.0 1/ 3  
64NM E OF VA BCH 0250 77 76 70/ 6/ 6 1011.0R 2/ 7 2/ 7  
DUCK PIER NC 0236 80 75 10/ 18/ 21 1009.8R  
44100 DUCK FRF 0245 80 N/A 1/ 8  
44056 DUCK FRF 0230 81 N/A 1/ 8  
OREGON INLET NC 0236 84 85 210/ 11/ 12 1009.4F  
HATTERAS NC 0236 82 83 240/ 8/ 11 1010.0S  
DIAMOND SHLS NC 0250 81 80 240/ 14/ 17 1010.6S 4/ 6 2/ 9  
CAPE LOOKOUT NC 0200 240/ 12/ 16 1011.3R  

 
 
 
CLICK HERE TO GO TO PREVIOUS BULLETINS.

The Nexlab VA Page
The Nexlab NC Page
The Nexlab MD Page Main Text Page